ABY422 OMSJ-VOCI

Flight info

Callsign ABY422
Flight time 3h 28m
Altitude 35000
Route ANVIX L223 TARDI N629 GIDAN P570 EMURU M300 VASTU P895 AKLON AKLON1A
Aircraft A320/M-SDE3FGHIRWY/LB1

Departure

Time 2026-05-07 18:31
Airport Sharjah International Airport (OMSJ)

Arrival

Time 2026-05-07 21:59
Airport Cochin International Airport (VOCI)
Time Latitude Longitude Altitude Speed Heading
2026-05-07 17:44 25.32284 55.52076 115 ft 0 kts 212°
2026-05-07 18:19 25.32295 55.52083 111 ft 2 kts 210°
2026-05-07 18:20 25.32309 55.52092 115 ft 2 kts 210°
2026-05-07 18:20 25.32323 55.52101 112 ft 2 kts 209°
2026-05-07 18:20 25.32338 55.52110 113 ft 2 kts 208°
2026-05-07 18:20 25.32352 55.52118 114 ft 2 kts 206°
2026-05-07 18:21 25.32367 55.52126 112 ft 2 kts 203°
2026-05-07 18:21 25.32383 55.52133 112 ft 2 kts 198°
2026-05-07 18:21 25.32398 55.52138 113 ft 2 kts 188°
2026-05-07 18:21 25.32415 55.52138 113 ft 2 kts 163°
2026-05-07 18:22 25.32427 55.52130 112 ft 1 kts 124°
2026-05-07 18:22 25.32429 55.52128 113 ft 0 kts 123°
2026-05-07 18:23 25.32428 55.52130 115 ft 2 kts 124°
2026-05-07 18:24 25.32416 55.52150 115 ft 3 kts 122°
2026-05-07 18:24 25.32407 55.52166 113 ft 2 kts 122°
2026-05-07 18:24 25.32403 55.52172 114 ft 0 kts 122°
2026-05-07 18:24 25.32400 55.52177 114 ft 3 kts 122°
2026-05-07 18:25 25.32382 55.52208 114 ft 5 kts 122°
2026-05-07 18:25 25.32366 55.52237 115 ft 3 kts 122°
2026-05-07 18:25 25.32356 55.52254 114 ft 2 kts 122°
2026-05-07 18:25 25.32352 55.52261 115 ft 0 kts 122°
2026-05-07 18:26 25.32352 55.52262 116 ft 1 kts 122°
2026-05-07 18:26 25.32333 55.52295 113 ft 9 kts 122°
2026-05-07 18:26 25.32284 55.52379 114 ft 17 kts 122°
2026-05-07 18:26 25.32214 55.52503 115 ft 20 kts 122°
2026-05-07 18:27 25.32142 55.52628 114 ft 19 kts 121°
2026-05-07 18:27 25.32073 55.52747 113 ft 17 kts 122°
2026-05-07 18:27 25.32015 55.52849 114 ft 14 kts 122°
2026-05-07 18:27 25.31981 55.52907 114 ft 13 kts 122°
2026-05-07 18:28 25.31925 55.53006 115 ft 10 kts 122°
2026-05-07 18:28 25.31880 55.53084 114 ft 15 kts 122°
2026-05-07 18:28 25.31816 55.53197 113 ft 19 kts 124°
2026-05-07 18:28 25.31785 55.53304 114 ft 12 kts 98°
2026-05-07 18:29 25.31799 55.53365 112 ft 6 kts 46°
2026-05-07 18:29 25.31846 55.53396 115 ft 12 kts 30°
2026-05-07 18:29 25.31934 55.53456 114 ft 15 kts 32°
2026-05-07 18:29 25.32017 55.53513 117 ft 13 kts 31°
2026-05-07 18:30 25.32087 55.53531 116 ft 10 kts 321°
2026-05-07 18:30 25.32119 55.53473 118 ft 10 kts 301°
2026-05-07 18:30 25.32251 55.53244 117 ft 72 kts 302°
2026-05-07 18:30 25.32646 55.52555 117 ft 138 kts 303°
2026-05-07 18:31 25.33244 55.51509 299 ft 175 kts 302°
2026-05-07 18:31 25.33938 55.50298 753 ft 196 kts 303°
2026-05-07 18:31 25.34431 55.49451 1235 ft 197 kts 302°
2026-05-07 18:31 25.35153 55.48201 2142 ft 190 kts 301°
2026-05-07 18:32 25.35868 55.46954 2509 ft 197 kts 301°
2026-05-07 18:32 25.36631 55.45617 2648 ft 215 kts 301°
2026-05-07 18:32 25.37410 55.44248 2875 ft 228 kts 301°
2026-05-07 18:32 25.38266 55.42742 3283 ft 233 kts 301°
2026-05-07 18:33 25.39199 55.41269 3734 ft 237 kts 316°
2026-05-07 18:33 25.40667 55.40492 4219 ft 239 kts 355°
2026-05-07 18:33 25.42304 55.40829 4622 ft 245 kts 24°
2026-05-07 18:33 25.43808 55.41764 5003 ft 251 kts 33°
2026-05-07 18:34 25.45241 55.42883 5492 ft 253 kts 36°
2026-05-07 18:34 25.46664 55.44035 6004 ft 254 kts 35°
2026-05-07 18:34 25.48104 55.45170 6534 ft 254 kts 34°
2026-05-07 18:34 25.49566 55.46277 7021 ft 255 kts 33°
2026-05-07 18:35 25.51047 55.47364 7517 ft 257 kts 35°
2026-05-07 18:35 25.52259 55.48795 8009 ft 257 kts 63°
2026-05-07 18:35 25.52686 55.50711 8442 ft 262 kts 93°
2026-05-07 18:35 25.52172 55.52664 8727 ft 273 kts 121°
2026-05-07 18:36 25.51134 55.54490 8960 ft 288 kts 122°
2026-05-07 18:36 25.50032 55.56400 9277 ft 299 kts 122°
2026-05-07 18:36 25.48907 55.58351 9786 ft 303 kts 122°
2026-05-07 18:36 25.47770 55.60324 10293 ft 305 kts 122°
2026-05-07 18:37 25.46629 55.62313 10834 ft 306 kts 122°
2026-05-07 18:37 25.45488 55.64308 11377 ft 307 kts 122°
2026-05-07 18:37 25.44347 55.66307 11937 ft 308 kts 122°
2026-05-07 18:37 25.43205 55.68310 12501 ft 308 kts 122°
2026-05-07 18:38 25.41885 55.70175 13041 ft 309 kts 134°
2026-05-07 18:38 25.40334 55.71830 13572 ft 311 kts 143°
2026-05-07 18:38 25.38412 55.72891 14060 ft 311 kts 166°
2026-05-07 18:38 25.36252 55.73020 14511 ft 315 kts 189°
2026-05-07 18:39 25.34204 55.72162 14908 ft 319 kts 213°
2026-05-07 18:39 25.32435 55.70653 15296 ft 324 kts 218°
2026-05-07 18:39 25.30645 55.69114 15706 ft 327 kts 216°
2026-05-07 18:39 25.28772 55.67671 16141 ft 329 kts 207°
2026-05-07 18:40 25.26659 55.66737 16587 ft 328 kts 192°
2026-05-07 18:40 25.24377 55.66391 16832 ft 337 kts 179°
2026-05-07 18:40 25.22009 55.66646 16959 ft 348 kts 170°
2026-05-07 18:40 25.19577 55.67062 17084 ft 360 kts 171°
2026-05-07 18:41 25.17054 55.67477 17216 ft 372 kts 171°
2026-05-07 18:41 25.14445 55.67864 17347 ft 384 kts 173°
2026-05-07 18:41 25.11748 55.68174 17472 ft 395 kts 174°
2026-05-07 18:41 25.08969 55.68439 17653 ft 404 kts 174°
2026-05-07 18:42 25.06147 55.68688 18010 ft 409 kts 174°
2026-05-07 18:42 25.03303 55.68942 18384 ft 411 kts 174°
2026-05-07 18:42 25.00449 55.69213 18753 ft 413 kts 173°
2026-05-07 18:42 24.97629 55.69850 19123 ft 414 kts 161°
2026-05-07 18:43 24.94990 55.71107 19480 ft 415 kts 149°
2026-05-07 18:43 24.92620 55.72929 19821 ft 417 kts 138°
2026-05-07 18:43 24.90612 55.75238 20153 ft 419 kts 127°
2026-05-07 18:43 24.88883 55.77836 20456 ft 422 kts 126°
2026-05-07 18:44 24.87152 55.80456 20756 ft 424 kts 126°
2026-05-07 18:44 24.85408 55.83085 21056 ft 427 kts 126°
2026-05-07 18:44 24.83668 55.85699 21347 ft 430 kts 127°
2026-05-07 18:44 24.81884 55.88350 21641 ft 432 kts 127°
2026-05-07 18:45 24.80058 55.91044 21932 ft 435 kts 127°
2026-05-07 18:45 24.78220 55.93636 22199 ft 436 kts 133°
2026-05-07 18:45 24.76026 55.96016 22486 ft 438 kts 137°
2026-05-07 18:45 24.73820 55.98271 22754 ft 440 kts 137°
2026-05-07 18:46 24.71574 56.00577 23020 ft 442 kts 137°
2026-05-07 18:46 24.69325 56.02891 23285 ft 444 kts 137°
2026-05-07 18:46 24.67067 56.05219 23507 ft 446 kts 137°
2026-05-07 18:46 24.64795 56.07563 23727 ft 448 kts 137°
2026-05-07 18:47 24.62519 56.09907 23930 ft 450 kts 137°
2026-05-07 18:47 24.60234 56.12260 24130 ft 452 kts 137°
2026-05-07 18:47 24.57935 56.14632 24327 ft 453 kts 137°
2026-05-07 18:47 24.55786 56.17179 24515 ft 456 kts 131°
2026-05-07 18:48 24.53716 56.19824 24696 ft 458 kts 131°
2026-05-07 18:48 24.51629 56.22477 24881 ft 459 kts 131°
2026-05-07 18:48 24.49535 56.25135 25063 ft 461 kts 131°
2026-05-07 18:48 24.47435 56.27802 25235 ft 463 kts 131°
2026-05-07 18:49 24.45327 56.30484 25398 ft 465 kts 131°
2026-05-07 18:49 24.43214 56.33173 25570 ft 466 kts 131°
2026-05-07 18:49 24.41095 56.35871 25749 ft 467 kts 131°
2026-05-07 18:49 24.38971 56.38575 25921 ft 469 kts 131°
2026-05-07 18:50 24.36834 56.41290 26087 ft 470 kts 132°
2026-05-07 18:50 24.34688 56.44011 26246 ft 472 kts 132°
2026-05-07 18:50 24.32536 56.46737 26403 ft 473 kts 132°
2026-05-07 18:50 24.30380 56.49470 26558 ft 475 kts 131°
2026-05-07 18:51 24.28275 56.52273 26710 ft 477 kts 129°
2026-05-07 18:51 24.26268 56.55176 26864 ft 479 kts 127°
2026-05-07 18:51 24.24334 56.58143 27017 ft 480 kts 126°
2026-05-07 18:51 24.22422 56.61152 27172 ft 481 kts 126°
2026-05-07 18:52 24.20510 56.64162 27318 ft 483 kts 126°
2026-05-07 18:52 24.18570 56.67171 27467 ft 484 kts 127°
2026-05-07 18:52 24.16605 56.70166 27609 ft 485 kts 127°
2026-05-07 18:52 24.14615 56.73154 27750 ft 486 kts 127°
2026-05-07 18:53 24.12609 56.76141 27889 ft 487 kts 127°
2026-05-07 18:53 24.10601 56.79126 28020 ft 488 kts 127°
2026-05-07 18:53 24.08614 56.82086 28150 ft 489 kts 127°
2026-05-07 18:53 24.06606 56.85089 28279 ft 490 kts 127°
2026-05-07 18:54 24.04592 56.88105 28405 ft 490 kts 127°
2026-05-07 18:54 24.02579 56.91124 28535 ft 491 kts 127°
2026-05-07 18:54 24.00566 56.94143 28671 ft 491 kts 127°
2026-05-07 18:54 23.98551 56.97156 28812 ft 491 kts 127°
2026-05-07 18:55 23.96533 57.00168 28976 ft 491 kts 127°
2026-05-07 18:55 23.94513 57.03175 29129 ft 491 kts 127°
2026-05-07 18:55 23.92492 57.06182 29280 ft 491 kts 127°
2026-05-07 18:55 23.90472 57.09190 29434 ft 490 kts 127°
2026-05-07 18:56 23.88454 57.12197 29588 ft 490 kts 127°
2026-05-07 18:56 23.86441 57.15198 29740 ft 490 kts 127°
2026-05-07 18:56 23.84426 57.18204 29888 ft 490 kts 127°
2026-05-07 18:56 23.82413 57.21205 30016 ft 490 kts 127°
2026-05-07 18:57 23.80397 57.24205 30151 ft 490 kts 127°
2026-05-07 18:57 23.78381 57.27203 30293 ft 489 kts 127°
2026-05-07 18:57 23.76369 57.30193 30435 ft 489 kts 128°
2026-05-07 18:57 23.74355 57.33177 30571 ft 488 kts 128°
2026-05-07 18:58 23.72339 57.36157 30713 ft 487 kts 128°
2026-05-07 18:58 23.70298 57.39111 30849 ft 487 kts 129°
2026-05-07 18:58 23.68213 57.42020 30982 ft 486 kts 130°
2026-05-07 18:58 23.66101 57.44890 31118 ft 486 kts 130°
2026-05-07 18:59 23.63970 57.47755 31261 ft 485 kts 130°
2026-05-07 18:59 23.61878 57.50569 31397 ft 485 kts 130°
2026-05-07 18:59 23.59739 57.53468 31527 ft 484 kts 130°
2026-05-07 18:59 23.57665 57.56301 31669 ft 484 kts 130°
2026-05-07 19:00 23.55575 57.59176 31808 ft 484 kts 130°
2026-05-07 19:00 23.53487 57.62051 31950 ft 483 kts 130°
2026-05-07 19:00 23.51403 57.64916 32090 ft 483 kts 130°
2026-05-07 19:00 23.49313 57.67785 32224 ft 482 kts 130°
2026-05-07 19:01 23.47226 57.70644 32361 ft 482 kts 130°
2026-05-07 19:01 23.45139 57.73500 32495 ft 482 kts 130°
2026-05-07 19:01 23.43054 57.76348 32629 ft 481 kts 130°
2026-05-07 19:01 23.40966 57.79194 32789 ft 480 kts 130°
2026-05-07 19:02 23.38882 57.82032 32878 ft 481 kts 130°
2026-05-07 19:02 23.34707 57.87724 32885 ft 480 kts 130°
2026-05-07 19:03 23.30537 57.93406 32885 ft 480 kts 130°
2026-05-07 19:03 23.26365 57.99083 32879 ft 480 kts 130°
2026-05-07 19:04 23.22285 58.04844 32884 ft 481 kts 127°
2026-05-07 19:04 23.18543 58.10819 32885 ft 482 kts 124°
2026-05-07 19:05 23.14851 58.16905 32888 ft 482 kts 125°
2026-05-07 19:05 23.11092 58.22941 32887 ft 482 kts 126°
2026-05-07 19:06 23.07279 58.28921 32888 ft 482 kts 126°
2026-05-07 19:06 23.01116 58.37482 32891 ft 478 kts 140°
2026-05-07 19:07 22.95690 58.41582 32893 ft 475 kts 150°
2026-05-07 19:07 22.90045 58.45327 32896 ft 476 kts 150°
2026-05-07 19:08 22.84406 58.49079 32897 ft 476 kts 150°
2026-05-07 19:08 22.78759 58.52822 32893 ft 476 kts 150°
2026-05-07 19:09 22.73106 58.56552 32891 ft 476 kts 151°
2026-05-07 19:09 22.67453 58.60279 32888 ft 476 kts 151°
2026-05-07 19:10 22.61842 58.63991 32889 ft 476 kts 150°
2026-05-07 19:10 22.56200 58.67720 32891 ft 475 kts 151°
2026-05-07 19:11 22.50557 58.71437 32886 ft 475 kts 151°
2026-05-07 19:11 22.44913 58.75148 32883 ft 474 kts 151°
2026-05-07 19:12 22.40199 58.78251 32884 ft 474 kts 151°
2026-05-07 19:12 22.34569 58.81954 32881 ft 474 kts 151°
2026-05-07 19:13 22.28942 58.85653 32878 ft 473 kts 150°
2026-05-07 19:13 22.23464 58.89605 32875 ft 476 kts 140°
2026-05-07 19:14 22.19024 58.94858 32869 ft 478 kts 131°
2026-05-07 19:14 22.14773 59.00384 32866 ft 478 kts 131°
2026-05-07 19:15 22.10492 59.05936 32860 ft 478 kts 131°
2026-05-07 19:15 22.05542 59.12335 32856 ft 478 kts 131°
2026-05-07 19:16 22.02000 59.16913 32855 ft 478 kts 131°
2026-05-07 19:16 21.97015 59.23339 32845 ft 478 kts 131°
2026-05-07 19:17 21.93473 59.27902 32838 ft 478 kts 131°
2026-05-07 19:17 21.88492 59.34330 32832 ft 478 kts 131°
2026-05-07 19:18 21.84948 59.38903 32829 ft 478 kts 131°
2026-05-07 19:18 21.80677 59.44394 32827 ft 478 kts 131°
2026-05-07 19:19 21.76418 59.49874 32822 ft 478 kts 131°
2026-05-07 19:19 21.72166 59.55331 32814 ft 478 kts 131°
2026-05-07 19:20 21.67869 59.60820 32814 ft 478 kts 131°
2026-05-07 19:20 21.63598 59.66286 32820 ft 478 kts 131°
2026-05-07 19:21 21.59326 59.71765 32819 ft 478 kts 131°
2026-05-07 19:21 21.55048 59.77242 32818 ft 478 kts 131°
2026-05-07 19:22 21.50762 59.82697 32829 ft 478 kts 131°
2026-05-07 19:22 21.46465 59.88149 32824 ft 478 kts 132°
2026-05-07 19:23 21.42171 59.93586 32818 ft 478 kts 132°
2026-05-07 19:23 21.37876 59.99023 32824 ft 477 kts 132°
2026-05-07 19:24 21.33585 60.04457 32820 ft 477 kts 132°
2026-05-07 19:24 21.29294 60.09887 32823 ft 477 kts 132°
2026-05-07 19:25 21.24998 60.15325 32824 ft 477 kts 132°
2026-05-07 19:25 21.20735 60.20716 32820 ft 477 kts 132°
2026-05-07 19:26 21.16418 60.26183 32824 ft 477 kts 132°
2026-05-07 19:26 21.12150 60.31572 32829 ft 477 kts 132°
2026-05-07 19:27 21.07859 60.36991 32828 ft 477 kts 132°
2026-05-07 19:27 21.03567 60.42408 32826 ft 477 kts 131°
2026-05-07 19:28 20.99273 60.47838 32830 ft 477 kts 131°
2026-05-07 19:28 20.94969 60.53249 32831 ft 477 kts 132°
2026-05-07 19:29 20.90661 60.58655 32832 ft 477 kts 132°
2026-05-07 19:29 20.86358 60.64066 32829 ft 477 kts 132°
2026-05-07 19:30 20.82053 60.69472 32837 ft 477 kts 132°
2026-05-07 19:30 20.77753 60.74870 32832 ft 477 kts 132°
2026-05-07 19:31 20.73452 60.80261 32823 ft 477 kts 132°
2026-05-07 19:31 20.69152 60.85646 32838 ft 476 kts 132°
2026-05-07 19:32 20.64849 60.91021 32834 ft 476 kts 132°
2026-05-07 19:32 20.60724 60.96543 32827 ft 477 kts 123°
2026-05-07 19:33 20.57174 61.02519 32829 ft 477 kts 123°
2026-05-07 19:33 20.53617 61.08488 32828 ft 477 kts 123°
2026-05-07 19:34 20.50053 61.14451 32836 ft 477 kts 123°
2026-05-07 19:34 20.46489 61.20405 32830 ft 476 kts 123°
2026-05-07 19:35 20.42923 61.26359 32829 ft 476 kts 123°
2026-05-07 19:35 20.39358 61.32309 32828 ft 476 kts 123°
2026-05-07 19:36 20.35819 61.38209 32830 ft 475 kts 123°
2026-05-07 19:36 20.32244 61.44144 32832 ft 475 kts 123°
2026-05-07 19:37 20.28682 61.50078 32839 ft 475 kts 123°
2026-05-07 19:37 20.25122 61.56006 32837 ft 475 kts 123°
2026-05-07 19:38 20.21552 61.61932 32838 ft 475 kts 123°
2026-05-07 19:38 20.17976 61.67851 32831 ft 475 kts 123°
2026-05-07 19:39 20.14394 61.73774 32838 ft 476 kts 123°
2026-05-07 19:39 20.10814 61.79697 32834 ft 476 kts 123°
2026-05-07 19:40 20.07232 61.85618 32841 ft 476 kts 123°
2026-05-07 19:40 20.03647 61.91542 32837 ft 476 kts 123°
2026-05-07 19:41 20.00054 61.97456 32832 ft 476 kts 123°
2026-05-07 19:41 19.96463 62.03364 32834 ft 476 kts 123°
2026-05-07 19:42 19.92877 62.09273 32835 ft 476 kts 123°
2026-05-07 19:42 19.89315 62.15147 32837 ft 476 kts 123°
2026-05-07 19:43 19.85725 62.21044 32836 ft 475 kts 123°
2026-05-07 19:43 19.82131 62.26943 32836 ft 476 kts 123°
2026-05-07 19:44 19.78533 62.32832 32832 ft 475 kts 123°
2026-05-07 19:44 19.74934 62.38726 32837 ft 475 kts 123°
2026-05-07 19:45 19.71339 62.44613 32838 ft 476 kts 123°
2026-05-07 19:45 19.67740 62.50505 32842 ft 475 kts 123°
2026-05-07 19:46 19.64146 62.56385 32841 ft 475 kts 123°
2026-05-07 19:46 19.60540 62.62266 32844 ft 475 kts 123°
2026-05-07 19:47 19.56940 62.68135 32840 ft 475 kts 123°
2026-05-07 19:47 19.53332 62.74008 32847 ft 475 kts 123°
2026-05-07 19:48 19.49721 62.79870 32842 ft 475 kts 123°
2026-05-07 19:48 19.46107 62.85745 32842 ft 475 kts 123°
2026-05-07 19:49 19.42516 62.91577 32841 ft 475 kts 123°
2026-05-07 19:49 19.38905 62.97435 32846 ft 475 kts 123°
2026-05-07 19:50 19.35294 63.03299 32844 ft 475 kts 123°
2026-05-07 19:50 19.31682 63.09151 32849 ft 475 kts 123°
2026-05-07 19:51 19.28063 63.14999 32844 ft 475 kts 123°
2026-05-07 19:51 19.24437 63.20848 32849 ft 475 kts 123°
2026-05-07 19:52 19.20819 63.26693 32851 ft 475 kts 123°
2026-05-07 19:52 19.17190 63.32533 32847 ft 474 kts 123°
2026-05-07 19:53 19.13564 63.38370 32855 ft 474 kts 123°
2026-05-07 19:53 19.09948 63.44209 32853 ft 474 kts 123°
2026-05-07 19:54 19.06333 63.50033 32854 ft 474 kts 124°
2026-05-07 19:54 19.02699 63.55858 32851 ft 474 kts 124°
2026-05-07 19:55 18.99071 63.61684 32856 ft 474 kts 123°
2026-05-07 19:55 18.95474 63.67463 32856 ft 474 kts 123°
2026-05-07 19:56 18.91845 63.73279 32857 ft 474 kts 124°
2026-05-07 19:56 18.88208 63.79086 32856 ft 474 kts 123°
2026-05-07 19:57 18.84587 63.84887 32854 ft 473 kts 123°
2026-05-07 19:57 18.80963 63.90694 32853 ft 473 kts 123°
2026-05-07 19:58 18.77338 63.96491 32853 ft 473 kts 124°
2026-05-07 19:58 18.73705 64.02271 32856 ft 473 kts 124°
2026-05-07 19:59 18.70068 64.08055 32855 ft 473 kts 124°
2026-05-07 19:59 18.66431 64.13837 32856 ft 473 kts 124°
2026-05-07 20:00 18.62810 64.19615 32857 ft 473 kts 123°
2026-05-07 20:00 18.59201 64.25361 32856 ft 473 kts 124°
2026-05-07 20:01 18.55550 64.31171 32861 ft 473 kts 124°
2026-05-07 20:01 18.51936 64.36903 32860 ft 473 kts 124°
2026-05-07 20:02 18.48298 64.42674 32863 ft 473 kts 124°
2026-05-07 20:02 18.45251 64.47513 32859 ft 473 kts 124°
2026-05-07 20:03 18.41015 64.54214 32862 ft 473 kts 124°
2026-05-07 20:03 18.37367 64.59979 32863 ft 473 kts 124°
2026-05-07 20:04 18.34331 64.64769 32858 ft 473 kts 124°
2026-05-07 20:04 18.30679 64.70526 32863 ft 473 kts 124°
2026-05-07 20:05 18.27006 64.76321 32863 ft 473 kts 124°
2026-05-07 20:05 18.23353 64.82075 32863 ft 472 kts 124°
2026-05-07 20:06 18.19735 64.87785 32862 ft 473 kts 124°
2026-05-07 20:06 18.16080 64.93541 32860 ft 473 kts 124°
2026-05-07 20:07 18.12425 64.99281 32859 ft 473 kts 124°
2026-05-07 20:07 18.08765 65.05023 32861 ft 472 kts 124°
2026-05-07 20:08 18.05111 65.10759 32860 ft 472 kts 124°
2026-05-07 20:08 18.01447 65.16488 32861 ft 472 kts 124°
2026-05-07 20:09 17.97788 65.22211 32860 ft 472 kts 124°
2026-05-07 20:10 17.92306 65.30805 32861 ft 472 kts 124°
2026-05-07 20:10 17.88647 65.36529 32859 ft 472 kts 124°
2026-05-07 20:11 17.84988 65.42245 32856 ft 472 kts 124°
2026-05-07 20:11 17.81320 65.47954 32857 ft 472 kts 124°
2026-05-07 20:12 17.77653 65.53663 32858 ft 471 kts 124°
2026-05-07 20:12 17.74000 65.59373 32857 ft 471 kts 124°
2026-05-07 20:13 17.70336 65.65081 32862 ft 472 kts 124°
2026-05-07 20:13 17.66663 65.70781 32861 ft 472 kts 124°
2026-05-07 20:14 17.62987 65.76478 32862 ft 471 kts 124°
2026-05-07 20:14 17.59344 65.82192 32857 ft 472 kts 123°
2026-05-07 20:15 17.55819 65.87947 32863 ft 472 kts 122°
2026-05-07 20:15 17.52297 65.93739 32864 ft 471 kts 123°
2026-05-07 20:16 17.48743 65.99518 32863 ft 471 kts 123°
2026-05-07 20:16 17.45177 66.05284 32861 ft 471 kts 123°
2026-05-07 20:17 17.41615 66.11037 32861 ft 471 kts 123°
2026-05-07 20:17 17.38056 66.16789 32862 ft 471 kts 123°
2026-05-07 20:18 17.34487 66.22546 32865 ft 470 kts 123°
2026-05-07 20:18 17.30941 66.28248 32862 ft 471 kts 123°
2026-05-07 20:19 17.27373 66.33994 32863 ft 471 kts 123°
2026-05-07 20:19 17.23782 66.39781 32862 ft 471 kts 123°
2026-05-07 20:20 17.20214 66.45520 32862 ft 471 kts 123°
2026-05-07 20:20 17.16667 66.51228 32863 ft 471 kts 123°
2026-05-07 20:21 17.16062 66.52200 32862 ft 471 kts 123°
2026-05-07 20:22 17.02613 66.73779 32860 ft 471 kts 123°
2026-05-07 20:23 16.99015 66.79528 32863 ft 472 kts 123°
2026-05-07 20:23 16.95426 66.85261 32863 ft 472 kts 123°
2026-05-07 20:24 16.91837 66.90991 32860 ft 471 kts 123°
2026-05-07 20:24 16.88274 66.96685 32862 ft 471 kts 123°
2026-05-07 20:25 16.84683 67.02423 32862 ft 472 kts 123°
2026-05-07 20:25 16.81094 67.08153 32862 ft 471 kts 123°
2026-05-07 20:26 16.77500 67.13877 32864 ft 471 kts 123°
2026-05-07 20:26 16.73899 67.19587 32865 ft 471 kts 123°
2026-05-07 20:27 16.70302 67.25301 32863 ft 471 kts 123°
2026-05-07 20:27 16.66711 67.31021 32859 ft 471 kts 123°
2026-05-07 20:28 16.63117 67.36734 32859 ft 471 kts 123°
2026-05-07 20:28 16.59516 67.42449 32858 ft 471 kts 123°
2026-05-07 20:29 16.55917 67.48157 32859 ft 471 kts 124°
2026-05-07 20:29 16.52311 67.53859 32857 ft 471 kts 124°
2026-05-07 20:30 16.48706 67.59557 32861 ft 471 kts 124°
2026-05-07 20:30 16.45126 67.65223 32857 ft 471 kts 124°
2026-05-07 20:31 16.41525 67.70916 32859 ft 471 kts 124°
2026-05-07 20:31 16.37921 67.76613 32859 ft 471 kts 124°
2026-05-07 20:32 16.34315 67.82302 32856 ft 471 kts 124°
2026-05-07 20:32 16.30702 67.87997 32858 ft 471 kts 124°
2026-05-07 20:33 16.27078 67.93688 32858 ft 471 kts 124°
2026-05-07 20:33 16.23480 67.99380 32856 ft 471 kts 123°
2026-05-07 20:34 16.19902 68.05097 32858 ft 471 kts 123°
2026-05-07 20:34 16.16323 68.10812 32853 ft 471 kts 123°
2026-05-07 20:35 16.12726 68.16511 32859 ft 471 kts 124°
2026-05-07 20:35 16.09124 68.22204 32857 ft 471 kts 124°
2026-05-07 20:36 16.05528 68.27901 32853 ft 471 kts 124°
2026-05-07 20:36 16.01934 68.33603 32852 ft 471 kts 123°
2026-05-07 20:37 15.98341 68.39306 32854 ft 472 kts 123°
2026-05-07 20:37 15.94737 68.45008 32853 ft 472 kts 124°
2026-05-07 20:38 15.91152 68.50657 32850 ft 472 kts 124°
2026-05-07 20:38 15.87548 68.56349 32848 ft 471 kts 124°
2026-05-07 20:39 15.83940 68.62043 32847 ft 472 kts 124°
2026-05-07 20:39 15.80328 68.67730 32845 ft 472 kts 124°
2026-05-07 20:40 15.76718 68.73415 32842 ft 472 kts 124°
2026-05-07 20:40 15.73103 68.79104 32846 ft 472 kts 124°
2026-05-07 20:41 15.69489 68.84794 32844 ft 472 kts 124°
2026-05-07 20:41 15.65872 68.90482 32843 ft 472 kts 124°
2026-05-07 20:42 15.62247 68.96168 32844 ft 472 kts 124°
2026-05-07 20:42 15.58624 69.01850 32838 ft 472 kts 124°
2026-05-07 20:43 15.54998 69.07530 32840 ft 472 kts 124°
2026-05-07 20:43 15.51373 69.13212 32839 ft 472 kts 124°
2026-05-07 20:44 15.47754 69.18882 32836 ft 472 kts 124°
2026-05-07 20:44 15.44126 69.24559 32834 ft 472 kts 124°
2026-05-07 20:45 15.40497 69.30227 32836 ft 472 kts 124°
2026-05-07 20:45 15.36864 69.35898 32837 ft 472 kts 124°
2026-05-07 20:46 15.33240 69.41559 32836 ft 472 kts 124°
2026-05-07 20:46 15.29616 69.47225 32832 ft 472 kts 124°
2026-05-07 20:47 15.25985 69.52883 32832 ft 472 kts 124°
2026-05-07 20:47 15.22350 69.58539 32833 ft 471 kts 124°
2026-05-07 20:48 15.18713 69.64178 32829 ft 471 kts 124°
2026-05-07 20:48 15.15079 69.69830 32826 ft 471 kts 124°
2026-05-07 20:49 15.11453 69.75478 32827 ft 471 kts 124°
2026-05-07 20:49 15.07858 69.81139 32828 ft 471 kts 123°
2026-05-07 20:50 15.04276 69.86809 32826 ft 471 kts 123°
2026-05-07 20:50 15.00688 69.92478 32824 ft 471 kts 124°
2026-05-07 20:51 14.97091 69.98136 32825 ft 470 kts 124°
2026-05-07 20:51 14.93497 70.03783 32823 ft 470 kts 124°
2026-05-07 20:52 14.89917 70.09392 32824 ft 470 kts 124°
2026-05-07 20:52 14.86321 70.15032 32820 ft 470 kts 124°
2026-05-07 20:53 14.82729 70.20674 32821 ft 470 kts 124°
2026-05-07 20:53 14.79129 70.26324 32819 ft 470 kts 124°
2026-05-07 20:54 14.75530 70.31957 32818 ft 470 kts 124°
2026-05-07 20:54 14.71931 70.37586 32817 ft 469 kts 124°
2026-05-07 20:55 14.68340 70.43218 32818 ft 469 kts 124°
2026-05-07 20:55 14.64739 70.48849 32816 ft 470 kts 124°
2026-05-07 20:56 14.61127 70.54469 32814 ft 469 kts 124°
2026-05-07 20:56 14.57527 70.60085 32812 ft 469 kts 124°
2026-05-07 20:57 14.53930 70.65710 32812 ft 469 kts 123°
2026-05-07 20:57 14.50333 70.71335 32812 ft 469 kts 124°
2026-05-07 20:58 14.46754 70.76917 32812 ft 469 kts 124°
2026-05-07 20:58 14.43150 70.82529 32809 ft 469 kts 124°
2026-05-07 20:59 14.39542 70.88137 32807 ft 469 kts 123°
2026-05-07 20:59 14.35940 70.93741 32807 ft 469 kts 124°
2026-05-07 21:00 14.32350 70.99352 32807 ft 469 kts 123°
2026-05-07 21:00 14.28798 71.04999 32803 ft 469 kts 123°
2026-05-07 21:01 14.25250 71.10634 32806 ft 468 kts 123°
2026-05-07 21:01 14.21694 71.16258 32803 ft 468 kts 123°
2026-05-07 21:02 14.18136 71.21877 32805 ft 468 kts 123°
2026-05-07 21:02 14.14583 71.27499 32804 ft 468 kts 123°
2026-05-07 21:03 14.11023 71.33112 32804 ft 468 kts 123°
2026-05-07 21:03 14.07481 71.38684 32804 ft 468 kts 123°
2026-05-07 21:04 14.03914 71.44299 32806 ft 468 kts 123°
2026-05-07 21:04 14.00356 71.49907 32808 ft 468 kts 123°
2026-05-07 21:05 13.96794 71.55524 32809 ft 468 kts 123°
2026-05-07 21:05 13.93228 71.61131 32805 ft 468 kts 123°
2026-05-07 21:06 13.89657 71.66740 32804 ft 468 kts 123°
2026-05-07 21:06 13.86694 71.71392 32805 ft 468 kts 123°
2026-05-07 21:07 13.83123 71.76995 32803 ft 468 kts 123°
2026-05-07 21:07 13.79559 71.82592 32803 ft 468 kts 123°
2026-05-07 21:08 13.75993 71.88194 32800 ft 468 kts 123°
2026-05-07 21:08 13.72417 71.93783 32800 ft 468 kts 123°
2026-05-07 21:09 13.68832 71.99372 32821 ft 469 kts 124°
2026-05-07 21:09 13.66840 72.02017 32997 ft 468 kts 129°
2026-05-07 21:09 13.64783 72.04612 33175 ft 468 kts 129°
2026-05-07 21:09 13.62726 72.07207 33350 ft 467 kts 129°
2026-05-07 21:10 13.60678 72.09795 33530 ft 467 kts 129°
2026-05-07 21:10 13.58632 72.12387 33709 ft 467 kts 129°
2026-05-07 21:10 13.56589 72.14978 33865 ft 466 kts 129°
2026-05-07 21:10 13.54548 72.17566 34027 ft 466 kts 129°
2026-05-07 21:11 13.52508 72.20146 34182 ft 465 kts 129°
2026-05-07 21:11 13.50473 72.22722 34343 ft 464 kts 129°
2026-05-07 21:11 13.46412 72.27863 34658 ft 462 kts 129°
2026-05-07 21:12 13.44384 72.30424 34764 ft 462 kts 129°
2026-05-07 21:12 13.42351 72.32984 34794 ft 462 kts 129°
2026-05-07 21:12 13.38287 72.38103 34790 ft 462 kts 129°
2026-05-07 21:13 13.34228 72.43222 34788 ft 463 kts 129°
2026-05-07 21:13 13.30167 72.48346 34790 ft 463 kts 129°
2026-05-07 21:14 13.26129 72.53437 34789 ft 463 kts 129°
2026-05-07 21:14 13.22061 72.58557 34786 ft 463 kts 129°
2026-05-07 21:15 13.17987 72.63678 34785 ft 463 kts 129°
2026-05-07 21:15 13.13915 72.68802 34794 ft 463 kts 129°
2026-05-07 21:16 13.09837 72.73922 34790 ft 463 kts 128°
2026-05-07 21:16 13.05769 72.79038 34783 ft 463 kts 128°
2026-05-07 21:17 13.01687 72.84156 34780 ft 463 kts 128°
2026-05-07 21:17 12.97606 72.89273 34783 ft 463 kts 128°
2026-05-07 21:18 12.93529 72.94384 34786 ft 463 kts 128°
2026-05-07 21:18 12.89477 72.99464 34791 ft 463 kts 128°
2026-05-07 21:19 12.85406 73.04564 34797 ft 462 kts 128°
2026-05-07 21:19 12.81341 73.09663 34796 ft 461 kts 128°
2026-05-07 21:20 12.77277 73.14753 34798 ft 461 kts 128°
2026-05-07 21:20 12.73207 73.19825 34793 ft 461 kts 128°
2026-05-07 21:21 12.69136 73.24912 34798 ft 461 kts 128°
2026-05-07 21:21 12.65068 73.29995 34804 ft 461 kts 129°
2026-05-07 21:22 12.61003 73.35065 34803 ft 461 kts 129°
2026-05-07 21:22 12.56941 73.40136 34799 ft 461 kts 129°
2026-05-07 21:23 12.52876 73.45214 34797 ft 460 kts 129°
2026-05-07 21:23 12.48811 73.50271 34791 ft 460 kts 129°
2026-05-07 21:24 12.44742 73.55334 34788 ft 461 kts 129°
2026-05-07 21:24 12.40675 73.60399 34787 ft 461 kts 129°
2026-05-07 21:25 12.36610 73.65466 34789 ft 461 kts 129°
2026-05-07 21:25 12.32532 73.70532 34793 ft 461 kts 129°
2026-05-07 21:26 12.28452 73.75584 34792 ft 461 kts 129°
2026-05-07 21:26 12.24369 73.80642 34795 ft 461 kts 129°
2026-05-07 21:27 12.20295 73.85704 34795 ft 461 kts 129°
2026-05-07 21:27 12.16226 73.90766 34792 ft 461 kts 129°
2026-05-07 21:28 12.12149 73.95818 34793 ft 461 kts 129°
2026-05-07 21:28 12.08071 74.00876 34788 ft 461 kts 129°
2026-05-07 21:29 12.03994 74.05925 34788 ft 460 kts 129°
2026-05-07 21:29 11.99914 74.10970 34777 ft 461 kts 129°
2026-05-07 21:30 11.95834 74.16019 34777 ft 461 kts 129°
2026-05-07 21:30 11.91756 74.21062 34776 ft 461 kts 129°
2026-05-07 21:31 11.87666 74.26113 34788 ft 461 kts 129°
2026-05-07 21:31 11.83617 74.31124 34789 ft 460 kts 129°
2026-05-07 21:32 11.79537 74.36161 34790 ft 461 kts 129°
2026-05-07 21:32 11.75447 74.41203 34792 ft 460 kts 129°
2026-05-07 21:33 11.71377 74.46226 34522 ft 459 kts 129°
2026-05-07 21:33 11.69339 74.48746 34297 ft 460 kts 129°
2026-05-07 21:33 11.67304 74.51267 34073 ft 460 kts 129°
2026-05-07 21:34 11.65264 74.53790 33854 ft 461 kts 129°
2026-05-07 21:34 11.63219 74.56314 33611 ft 463 kts 130°
2026-05-07 21:34 11.61167 74.58843 33354 ft 463 kts 130°
2026-05-07 21:34 11.59109 74.61374 33107 ft 463 kts 130°
2026-05-07 21:35 11.57047 74.63906 32865 ft 464 kts 130°
2026-05-07 21:35 11.54984 74.66436 32747 ft 464 kts 130°
2026-05-07 21:35 11.50854 74.71501 32777 ft 465 kts 130°
2026-05-07 21:36 11.47422 74.75719 32779 ft 465 kts 130°
2026-05-07 21:36 11.42592 74.81665 32783 ft 466 kts 130°
2026-05-07 21:37 11.38460 74.86744 32780 ft 466 kts 130°
2026-05-07 21:37 11.34294 74.91795 32777 ft 465 kts 132°
2026-05-07 21:38 11.29851 74.96593 32780 ft 465 kts 135°
2026-05-07 21:38 11.25266 75.01232 32782 ft 464 kts 135°
2026-05-07 21:39 11.20713 75.05900 32783 ft 463 kts 135°
2026-05-07 21:39 11.16231 75.10601 31992 ft 464 kts 134°
2026-05-07 21:40 11.14002 75.12956 30849 ft 472 kts 134°
2026-05-07 21:40 11.11719 75.15371 29907 ft 474 kts 134°
2026-05-07 21:40 11.09412 75.17801 29211 ft 468 kts 134°
2026-05-07 21:40 11.07162 75.20160 28539 ft 462 kts 134°
2026-05-07 21:41 11.04966 75.22458 27887 ft 456 kts 134°
2026-05-07 21:41 11.02764 75.24762 27226 ft 452 kts 134°
2026-05-07 21:41 11.00581 75.27049 26583 ft 448 kts 134°
2026-05-07 21:41 10.98418 75.29313 25944 ft 444 kts 134°
2026-05-07 21:42 10.96245 75.31584 25310 ft 440 kts 134°
2026-05-07 21:42 10.94141 75.33781 24695 ft 437 kts 134°
2026-05-07 21:42 10.92026 75.35989 24078 ft 435 kts 133°
2026-05-07 21:42 10.89920 75.38189 23475 ft 432 kts 133°
2026-05-07 21:43 10.87829 75.40379 22820 ft 429 kts 133°
2026-05-07 21:43 10.85765 75.42540 22260 ft 424 kts 133°
2026-05-07 21:43 10.83719 75.44679 21735 ft 419 kts 133°
2026-05-07 21:43 10.81693 75.46794 21214 ft 415 kts 133°
2026-05-07 21:44 10.79691 75.48886 20723 ft 411 kts 133°
2026-05-07 21:44 10.77707 75.50959 20232 ft 407 kts 133°
2026-05-07 21:44 10.76765 75.51941 19999 ft 406 kts 134°
2026-05-07 21:44 10.76514 75.52204 19941 ft 405 kts 134°
2026-05-07 21:45 10.74554 75.54248 19453 ft 402 kts 134°
2026-05-07 21:45 10.72613 75.56276 18964 ft 399 kts 134°
2026-05-07 21:45 10.70676 75.58297 18480 ft 397 kts 134°
2026-05-07 21:45 10.68753 75.60305 17965 ft 395 kts 134°
2026-05-07 21:46 10.66840 75.62303 17429 ft 393 kts 134°
2026-05-07 21:46 10.64943 75.64283 16928 ft 389 kts 133°
2026-05-07 21:46 10.63057 75.66254 16415 ft 387 kts 133°
2026-05-07 21:46 10.61186 75.68206 15903 ft 384 kts 133°
2026-05-07 21:47 10.59327 75.70144 15390 ft 382 kts 133°
2026-05-07 21:47 10.57474 75.72072 14867 ft 380 kts 133°
2026-05-07 21:47 10.55632 75.73992 14355 ft 379 kts 133°
2026-05-07 21:47 10.53793 75.75907 13835 ft 377 kts 133°
2026-05-07 21:48 10.51966 75.77811 13265 ft 376 kts 133°
2026-05-07 21:48 10.50150 75.79707 12741 ft 373 kts 133°
2026-05-07 21:48 10.48347 75.81587 12213 ft 369 kts 133°
2026-05-07 21:48 10.46583 75.83424 11684 ft 367 kts 133°
2026-05-07 21:49 10.44808 75.85270 11151 ft 364 kts 133°
2026-05-07 21:49 10.43022 75.87125 10608 ft 361 kts 133°
2026-05-07 21:49 10.41305 75.88912 10302 ft 352 kts 133°
2026-05-07 21:49 10.39635 75.90649 10183 ft 337 kts 133°
2026-05-07 21:50 10.38031 75.92314 10070 ft 323 kts 132°
2026-05-07 21:50 10.36984 75.93400 9994 ft 314 kts 132°
2026-05-07 21:50 10.35016 75.95447 9817 ft 299 kts 132°
2026-05-07 21:50 10.33580 75.96944 9383 ft 299 kts 132°
2026-05-07 21:51 10.32626 75.97941 9177 ft 295 kts 132°
2026-05-07 21:51 10.30741 75.99904 8672 ft 292 kts 132°
2026-05-07 21:51 10.29325 76.01372 8266 ft 291 kts 132°
2026-05-07 21:51 10.28372 76.02362 7995 ft 289 kts 132°
2026-05-07 21:52 10.27006 76.03783 7603 ft 287 kts 132°
2026-05-07 21:52 10.25614 76.05230 7199 ft 286 kts 133°
2026-05-07 21:52 10.23761 76.07152 6675 ft 283 kts 133°
2026-05-07 21:52 10.22851 76.08097 6400 ft 282 kts 133°
2026-05-07 21:53 10.21482 76.09518 5991 ft 281 kts 133°
2026-05-07 21:53 10.20124 76.10929 5471 ft 277 kts 133°
2026-05-07 21:53 10.18781 76.12324 4799 ft 276 kts 133°
2026-05-07 21:53 10.17464 76.13691 4482 ft 266 kts 133°
2026-05-07 21:54 10.16199 76.15002 4329 ft 254 kts 133°
2026-05-07 21:54 10.15017 76.16272 4213 ft 240 kts 125°
2026-05-07 21:54 10.14358 76.17756 4084 ft 227 kts 98°
2026-05-07 21:54 10.14317 76.19068 3800 ft 225 kts 85°
2026-05-07 21:55 10.14347 76.20684 3453 ft 226 kts 85°
2026-05-07 21:55 10.14438 76.22266 3094 ft 227 kts 85°
2026-05-07 21:55 10.14513 76.23880 2783 ft 226 kts 86°
2026-05-07 21:55 10.14573 76.25454 2488 ft 217 kts 86°
2026-05-07 21:56 10.14626 76.26919 2238 ft 198 kts 85°
2026-05-07 21:56 10.14674 76.28245 1994 ft 178 kts 85°
2026-05-07 21:56 10.14718 76.29433 1775 ft 160 kts 85°
2026-05-07 21:56 10.14758 76.30508 1584 ft 149 kts 86°
2026-05-07 21:57 10.14798 76.31557 1388 ft 149 kts 86°
2026-05-07 21:57 10.14837 76.32606 1189 ft 149 kts 86°
2026-05-07 21:57 10.14876 76.33651 998 ft 148 kts 86°
2026-05-07 21:57 10.14914 76.34692 805 ft 148 kts 87°
2026-05-07 21:58 10.14953 76.35727 612 ft 147 kts 88°
2026-05-07 21:58 10.15004 76.36767 396 ft 147 kts 88°
2026-05-07 21:58 10.15034 76.37801 196 ft 147 kts 89°
2026-05-07 21:58 10.15070 76.38839 44 ft 147 kts 88°
2026-05-07 21:59 10.15101 76.39737 39 ft 95 kts 86°
2026-05-07 21:59 10.15118 76.40197 39 ft 54 kts 88°
2026-05-07 21:59 10.15132 76.40540 38 ft 44 kts 88°
2026-05-07 21:59 10.15168 76.40753 38 ft 22 kts 70°
2026-05-07 22:00 10.15213 76.40848 38 ft 9 kts 56°
2026-05-07 22:00 10.15245 76.40895 37 ft 7 kts 56°
2026-05-07 22:00 10.15272 76.40928 38 ft 5 kts 38°
2026-05-07 22:00 10.15295 76.40928 39 ft 1 kts 327°
2026-05-07 22:01 10.15314 76.40902 39 ft 12 kts 295°
2026-05-07 22:01 10.15314 76.40779 38 ft 20 kts 268°
2026-05-07 22:01 10.15309 76.40630 38 ft 22 kts 269°
2026-05-07 22:01 10.15302 76.40471 39 ft 23 kts 268°
2026-05-07 22:02 10.15297 76.40307 39 ft 24 kts 268°
2026-05-07 22:02 10.15291 76.40141 39 ft 22 kts 271°
2026-05-07 22:02 10.15285 76.40001 39 ft 17 kts 267°
2026-05-07 22:02 10.15331 76.39944 39 ft 10 kts 356°
2026-05-07 22:03 10.15391 76.39937 39 ft 4 kts 310°
2026-05-07 22:03 10.15387 76.39920 38 ft 3 kts 255°
2026-05-07 22:03 10.15381 76.39898 39 ft 5 kts 258°
2026-05-07 22:03 10.15376 76.39851 39 ft 7 kts 265°
2026-05-07 22:04 10.15374 76.39779 39 ft 12 kts 270°
2026-05-07 22:04 10.15423 76.39741 39 ft 9 kts 354°
2026-05-07 22:04 10.15478 76.39738 39 ft 7 kts 358°
2026-05-07 22:04 10.15528 76.39737 39 ft 8 kts 358°
2026-05-07 22:05 10.15578 76.39729 39 ft 7 kts 350°
2026-05-07 22:05 10.15618 76.39727 39 ft 5 kts 358°
2026-05-07 22:05 10.15649 76.39727 39 ft 4 kts 359°
2026-05-07 22:05 10.15659 76.39726 39 ft 0 kts 358°